Tracking 25372 objects as of 23-Jan-2022
HD Live streaming from Space Station
objects crossing your sky now

INMARSAT 2-F3

Track INMARSAT 2-F3 now!
INMARSAT 2-F3 is classified as:


NORAD ID: 21814
Int'l Code: 1991-084B
Perigee: 36,944.8 km
Apogee: 37,088.7 km
Inclination: 12.8 °
Period: 1,499.0 minutes
Semi major axis: 43387 km
RCS: 12.5892 m2 (large)
Launch date: December 16, 1991
Source: International Mobile Satellite Organization (INMARSAT) (IM)
Launch site: FRENCH GUIANA (FRGUI)

Broadcasting, business services, mobile communications; demand-assigned L-band transponders; spare satellite co-located with Inmarsat 3s.
aabbcc
Your satellite tracking list
Your tracking list is empty




NASA's NSSDC Master Catalog

Two Line Element Set (TLE):
1 21814U 91084B   22022.38618144 -.00000105  00000-0  00000-0 0  9998
2 21814  12.8125  22.9168 0016585  40.2717 136.6427  0.96062068107735
Source of the keplerian elements: AFSPC